Location: Shenandoah County Park
(38.9356°N, 78.4524°W)
Time: 01:51:58
(UTC-05:00)

Envisat - Pass Details

Date: 06 December 2021
Orbit: 764 x 766 km, 98.2° (Epoch: 23 January)

Event Time Altitude Azimuth Distance (km) Brightness Sun altitude
Rises 04:20:16 0° 25° (NNE) 3,239 6.5 -33.9°
Reaches altitude 10° 04:22:57 10° 38° (NE) 2,307 5.8 -33.4°
Maximum altitude 04:27:11 26° 95° (E) 1,465 5.0 -32.5°
Drops below altitude 10° 04:31:24 10° 152° (SSE) 2,293 5.8 -31.7°
Sets 04:34:02 0° 164° (SSE) 3,214 6.5 -31.2°
